Orbital Elements at Epoch 2459200.5 (2020-Dec-17.0) TDB
Reference: JPL 19 (heliocentric ecliptic J2000)
Element | Value | Uncertainty (1-sigma) | Units |
e | .1145057847966474 | 4.1694e-08 | |
a | 2.76452293361491 | 2.1573e-08 | au |
q | 2.447969065513005 | 1.1233e-07 | au |
i | 8.392016213124773 | 4.832e-06 | deg |
node | 349.8238149528726 | 3.0164e-05 | deg |
peri | 61.36241980430081 | 3.7066e-05 | deg |
M | 278.2613432484798 | 2.3916e-05 | deg |
tp | 2459581.700725196357 (2022-Jan-02.20072520) | 0.00011348 | TDB |
period | 1678.915051024941 4.60 | 1.9652e-05 5.38e-08 | d yr |
n | .2144241900626407 | 2.5099e-09 | deg/d |
Q | 3.081076801716815 | 2.4044e-08 | au |
|
| | Orbit Determination Parameters
Additional Information
|